Hourly Weather Holov'yatyne

Today, 13 April, Tuesday

Time Temperature Precipitation Wind Pressure Humidity
00:00 +10°C° 0 mm 1 mps 754 mmHg 83%
01:00 +10°C° 0 mm 1 mps 754 mmHg 84%
02:00 +10°C° 0 mm 1 mps 754 mmHg 85%
03:00 +10°C° 0 mm 1 mps 754 mmHg 86%
04:00 +9°C° 0 mm 2 mps 754 mmHg 86%
05:00 +8°C° 0 mm 2 mps 754 mmHg 87%
06:00 +9°C° 0 mm 2 mps 754 mmHg 86%
07:00 +9°C° 0 mm 2 mps 754 mmHg 84%
08:00 +10°C° 0 mm 2 mps 754 mmHg 82%
09:00 +11°C° 0 mm 3 mps 754 mmHg 76%
10:00 +12°C° 0 mm 3 mps 754 mmHg 70%
11:00 +13°C° 0 mm 4 mps 753 mmHg 63%
12:00 +13°C° 0 mm 3 mps 753 mmHg 64%
13:00 +13°C° 0 mm 3 mps 753 mmHg 64%
14:00 +13°C° 0 mm 3 mps 753 mmHg 65%
15:00 +13°C° 0 mm 3 mps 753 mmHg 67%
16:00 +12°C° 0 mm 3 mps 752 mmHg 70%
17:00 +13°C° 0 mm 2 mps 752 mmHg 72%
18:00 +12°C° 0 mm 2 mps 753 mmHg 75%
19:00 +10°C° 0 mm 2 mps 753 mmHg 77%
20:00 +10°C° 0 mm 3 mps 753 mmHg 79%
21:00 +10°C° 0 mm 2 mps 753 mmHg 80%
22:00 +9°C° 0 mm 2 mps 752 mmHg 80%
23:00 +9°C° 0 mm 2 mps 752 mmHg 81%

Tomorrow, 14 April, Wednesday

Time Temperature Precipitation Wind Pressure Humidity
00:00 +9°C° 0 mm 2 mps 752 mmHg 81%
01:00 +9°C° 0 mm 2 mps 752 mmHg 80%
02:00 +9°C° 0 mm 2 mps 752 mmHg 80%
03:00 +9°C° 0 mm 2 mps 751 mmHg 81%
04:00 +8°C° 0 mm 2 mps 751 mmHg 83%
05:00 +8°C° 0 mm 2 mps 751 mmHg 84%
06:00 +9°C° 0 mm 2 mps 751 mmHg 81%
07:00 +9°C° 0 mm 3 mps 751 mmHg 78%
08:00 +10°C° 0 mm 3 mps 751 mmHg 75%
09:00 +11°C° 0 mm 3 mps 751 mmHg 69%
10:00 +12°C° 0 mm 3 mps 751 mmHg 63%
11:00 +13°C° 0 mm 3 mps 751 mmHg 57%
12:00 +14°C° 0 mm 3 mps 750 mmHg 54%
13:00 +16°C° 0 mm 3 mps 750 mmHg 50%
14:00 +16°C° 0 mm 3 mps 750 mmHg 47%
15:00 +14°C° 0 mm 3 mps 749 mmHg 51%
16:00 +14°C° 0 mm 3 mps 749 mmHg 56%
17:00 +14°C° 0 mm 2 mps 749 mmHg 61%
18:00 +13°C° 0 mm 2 mps 749 mmHg 63%
19:00 +13°C° 0 mm 2 mps 749 mmHg 65%
20:00 +12°C° 0 mm 2 mps 749 mmHg 67%
21:00 +12°C° 0 mm 2 mps 749 mmHg 69%
22:00 +12°C° 0 mm 2 mps 749 mmHg 71%
23:00 +11°C° 0 mm 3 mps 748 mmHg 73%

Day after tomorrow, 15 April, Thursday

Time Temperature Precipitation Wind Pressure Humidity
00:00 +10°C° 0 mm 3 mps 748 mmHg 74%
01:00 +10°C° 0 mm 3 mps 748 mmHg 76%
02:00 +9°C° 0 mm 3 mps 748 mmHg 77%
03:00 +9°C° 0 mm 2 mps 748 mmHg 79%
04:00 +9°C° 0 mm 2 mps 748 mmHg 81%
05:00 +8°C° 0 mm 2 mps 748 mmHg 83%
06:00 +8°C° 0.1 mm 3 mps 748 mmHg 83%
07:00 +9°C° 0.1 mm 3 mps 748 mmHg 83%
08:00 +9°C° 0.1 mm 3 mps 748 mmHg 83%
09:00 +9°C° 0.1 mm 3 mps 748 mmHg 84%
10:00 +9°C° 0.1 mm 3 mps 747 mmHg 85%
11:00 +9°C° 0.1 mm 3 mps 747 mmHg 85%
12:00 +9°C° 0.2 mm 3 mps 747 mmHg 86%
13:00 +9°C° 0.2 mm 3 mps 747 mmHg 86%
14:00 +10°C° 0.2 mm 3 mps 747 mmHg 86%
15:00 +9°C° 0.5 mm 3 mps 747 mmHg 88%
16:00 +9°C° 0.5 mm 2 mps 747 mmHg 91%
17:00 +9°C° 0.5 mm 2 mps 747 mmHg 93%
18:00 +8°C° 0.6 mm 2 mps 746 mmHg 93%
19:00 +8°C° 0.6 mm 2 mps 746 mmHg 93%
20:00 +8°C° 0.6 mm 3 mps 746 mmHg 93%
21:00 +8°C° 0.2 mm 3 mps 746 mmHg 93%
22:00 +8°C° 0.2 mm 3 mps 746 mmHg 93%
23:00 +8°C° 0.2 mm 3 mps 746 mmHg 93%

16 April, Friday

Time Temperature Precipitation Wind Pressure Humidity
00:00 +6°C° 0.1 mm 4 mps 746 mmHg 92%
01:00 +6°C° 0.1 mm 4 mps 746 mmHg 91%
02:00 +5°C° 0.1 mm 4 mps 746 mmHg 90%
03:00 +5°C° 0 mm 4 mps 746 mmHg 89%
04:00 +5°C° 0 mm 4 mps 746 mmHg 88%
05:00 +4°C° 0 mm 4 mps 746 mmHg 87%
06:00 +4°C° 0 mm 4 mps 747 mmHg 86%
07:00 +5°C° 0 mm 4 mps 747 mmHg 84%
08:00 +5°C° 0 mm 4 mps 747 mmHg 83%
09:00 +5°C° 0 mm 4 mps 747 mmHg 84%
10:00 +5°C° 0 mm 5 mps 747 mmHg 86%
11:00 +5°C° 0 mm 5 mps 748 mmHg 87%
12:00 +3°C° 0.1 mm 5 mps 748 mmHg 88%
13:00 +3°C° 0.1 mm 5 mps 748 mmHg 90%
14:00 +3°C° 0.1 mm 5 mps 749 mmHg 91%
15:00 +3°C° 0.1 mm 5 mps 749 mmHg 90%
16:00 +4°C° 0.1 mm 4 mps 749 mmHg 89%
17:00 +4°C° 0.1 mm 4 mps 749 mmHg 88%
18:00 +4°C° 0 mm 3 mps 750 mmHg 87%
19:00 +4°C° 0 mm 3 mps 750 mmHg 86%
20:00 +4°C° 0 mm 3 mps 750 mmHg 85%
21:00 +4°C° 0.1 mm 3 mps 750 mmHg 86%
22:00 +4°C° 0.1 mm 3 mps 750 mmHg 87%
23:00 +4°C° 0.1 mm 3 mps 751 mmHg 88%

17 April, Saturday

Time Temperature Precipitation Wind Pressure Humidity
00:00 +4°C° 0 mm 3 mps 751 mmHg 88%
01:00 +4°C° 0 mm 3 mps 751 mmHg 88%
02:00 +3°C° 0 mm 3 mps 751 mmHg 88%
03:00 +3°C° 0 mm 3 mps 752 mmHg 89%
04:00 +3°C° 0 mm 3 mps 752 mmHg 89%
05:00 +4°C° 0 mm 2 mps 752 mmHg 89%
06:00 +5°C° 0 mm 2 mps 752 mmHg 85%
07:00 +6°C° 0 mm 2 mps 752 mmHg 80%
08:00 +7°C° 0 mm 2 mps 753 mmHg 76%
09:00 +8°C° 0 mm 2 mps 753 mmHg 73%
10:00 +8°C° 0 mm 2 mps 753 mmHg 69%
11:00 +9°C° 0 mm 2 mps 753 mmHg 66%
12:00 +9°C° 0 mm 2 mps 753 mmHg 67%
13:00 +9°C° 0 mm 2 mps 753 mmHg 69%
14:00 +9°C° 0 mm 2 mps 754 mmHg 70%
15:00 +9°C° 0 mm 2 mps 754 mmHg 70%
16:00 +9°C° 0 mm 2 mps 754 mmHg 69%
17:00 +10°C° 0 mm 1 mps 754 mmHg 69%
18:00 +10°C° 0 mm 1 mps 754 mmHg 73%
19:00 +9°C° 0 mm 1 mps 754 mmHg 77%
20:00 +8°C° 0 mm 1 mps 754 mmHg 82%
21:00 +8°C° 0 mm 1 mps 754 mmHg 83%
22:00 +7°C° 0 mm 1 mps 755 mmHg 84%
23:00 +7°C° 0 mm 1 mps 755 mmHg 85%

18 April, Sunday

Time Temperature Precipitation Wind Pressure Humidity
00:00 +7°C° 0 mm 1 mps 755 mmHg 85%
01:00 +6°C° 0 mm 2 mps 755 mmHg 85%
02:00 +7°C° 0 mm 2 mps 755 mmHg 85%
03:00 +6°C° 0 mm 2 mps 756 mmHg 86%
04:00 +6°C° 0 mm 2 mps 756 mmHg 87%
05:00 +5°C° 0 mm 3 mps 756 mmHg 89%
06:00 +7°C° 0 mm 3 mps 756 mmHg 83%
07:00 +8°C° 0 mm 3 mps 757 mmHg 78%
08:00 +9°C° 0 mm 3 mps 757 mmHg 73%
09:00 +10°C° 0 mm 4 mps 757 mmHg 66%
10:00 +12°C° 0 mm 4 mps 757 mmHg 59%
11:00 +13°C° 0 mm 4 mps 757 mmHg 53%
12:00 +13°C° 0 mm 4 mps 757 mmHg 51%
13:00 +14°C° 0 mm 4 mps 757 mmHg 49%
14:00 +14°C° 0 mm 3 mps 757 mmHg 47%
15:00 +13°C° 0 mm 4 mps 757 mmHg 50%
16:00 +13°C° 0 mm 4 mps 757 mmHg 54%
17:00 +13°C° 0 mm 5 mps 757 mmHg 57%
18:00 +10°C° 0 mm 5 mps 758 mmHg 66%
19:00 +10°C° 0 mm 4 mps 758 mmHg 74%
20:00 +7°C° 0 mm 4 mps 758 mmHg 83%
21:00 +7°C° 0 mm 4 mps 758 mmHg 85%
22:00 +6°C° 0 mm 4 mps 758 mmHg 87%
23:00 +7°C° 0 mm 3 mps 758 mmHg 90%
Show more